Location: Le Rouget
(44.8538°N, 2.2328°E)
Time: 05:48:32
(UTC+00:00)

Cosmos 1354 Rocket - Pass Details

Date: 15 May 2026
Orbit: 761 x 778 km, 74.0° (Epoch: 6 June)

Event Time Altitude Azimuth Distance (km) Brightness Sun altitude
Rises 21:58:54 0° 338° (NNW) 3,244 8.8 -21.5°
Reaches altitude 10° 22:01:18 10° 339° (NNW) 2,311 7.6 -21.7°
Maximum altitude 22:06:33 89° 251° (WSW) 769 3.9 -22.1°
Enters shadow 22:07:47 54° 162° (SSE) 923 4.0 -22.2°
